| time (UTC) | temp F | wind direction | speed MPH | gust MPH | rain 1hr in | rain 24hr in | rain mn in | humidity % | barometer mb |
| 20260504234522 | 75 | 216 | 4.0 | 7.0 | 0.00 | 0.00 | 0.00 | 55 | 1005.5 |
| 20260504234019 | 76 | 175 | 3.0 | 6.0 | 0.00 | 0.00 | 0.00 | 55 | 1005.3 |
| 20260504233514 | 76 | 174 | 3.0 | 7.0 | 0.00 | 0.00 | 0.00 | 53 | 1005.1 |
| 20260504233011 | 77 | 178 | 3.0 | 8.0 | 0.00 | 0.00 | 0.00 | 54 | 1005.4 |
| 20260504232508 | 77 | 195 | 3.0 | 5.0 | 0.00 | 0.00 | 0.00 | 53 | 1005.4 |
| 20260504232006 | 77 | 207 | 6.0 | 13.0 | 0.00 | 0.00 | 0.00 | 52 | 1005.3 |
| 20260504231502 | 78 | 190 | 5.0 | 9.0 | 0.00 | 0.00 | 0.00 | 52 | 1005.4 |
| 20260504230958 | 78 | 199 | 2.0 | 6.0 | 0.00 | 0.00 | 0.00 | 53 | 1005.2 |
| 20260504230455 | 78 | 205 | 3.0 | 5.0 | 0.00 | 0.00 | 0.00 | 52 | 1005.2 |
| 20260504225954 | 78 | 194 | 3.0 | 11.0 | 0.00 | 0.00 | 0.00 | 52 | 1005.2 |
| 20260504225450 | 78 | 217 | 3.0 | 13.0 | 0.00 | 0.00 | 0.00 | 52 | 1005.3 |
| 20260504224947 | 78 | 199 | 4.0 | 5.0 | 0.00 | 0.00 | 0.00 | 52 | 1005.5 |
| 20260504224444 | 78 | 165 | 5.0 | 9.0 | 0.00 | 0.00 | 0.00 | 51 | 1005.4 |
| 20260504223941 | 79 | 177 | 3.0 | 9.0 | 0.00 | 0.00 | 0.00 | 51 | 1005.5 |
| 20260504223437 | 79 | 190 | 7.0 | 13.0 | 0.00 | 0.00 | 0.00 | 52 | 1005.4 |
| 20260504222933 | 79 | 183 | 8.0 | 15.0 | 0.00 | 0.00 | 0.00 | 51 | 1005.5 |
| 20260504222431 | 79 | 180 | 4.0 | 9.0 | 0.00 | 0.00 | 0.00 | 51 | 1005.4 |
| 20260504221928 | 80 | 139 | 9.0 | 15.0 | 0.00 | 0.00 | 0.00 | 50 | 1005.5 |
| 20260504221425 | 79 | 146 | 3.0 | 11.0 | 0.00 | 0.00 | 0.00 | 52 | 1005.4 |
| 20260504220922 | 79 | 205 | 3.0 | 14.0 | 0.00 | 0.00 | 0.00 | 52 | 1005.5 |
| 20260504220418 | 80 | 169 | 3.0 | 6.0 | 0.00 | 0.00 | 0.00 | 51 | 1005.5 |
| 20260504215916 | 79 | 175 | 3.0 | 13.0 | 0.00 | 0.00 | 0.00 | 51 | 1005.4 |
| 20260504215412 | 79 | 189 | 7.0 | 11.0 | 0.00 | 0.00 | 0.00 | 52 | 1005.4 |
| 20260504214908 | 79 | 182 | 5.0 | 8.0 | 0.00 | 0.00 | 0.00 | 53 | 1005.6 |
| 20260504214405 | 79 | 173 | 6.0 | 9.0 | 0.00 | 0.00 | 0.00 | 52 | 1005.7 |
| 20260504213902 | 79 | 194 | 5.0 | 10.0 | 0.00 | 0.00 | 0.00 | 52 | 1005.5 |
| 20260504213358 | 79 | 215 | 4.0 | 7.0 | 0.00 | 0.00 | 0.00 | 52 | 1005.6 |
| 20260504212856 | 79 | 169 | 7.0 | 8.0 | 0.00 | 0.00 | 0.00 | 52 | 1005.6 |
| 20260504212352 | 78 | 191 | 6.0 | 14.0 | 0.00 | 0.00 | 0.00 | 53 | 1005.9 |
| 20260504211850 | 78 | 136 | 3.0 | 18.0 | 0.00 | 0.00 | 0.00 | 52 | 1005.8 |
| 20260504211345 | 79 | 200 | 5.0 | 11.0 | 0.00 | 0.00 | 0.00 | 52 | 1005.6 |
| 20260504210843 | 79 | 156 | 7.0 | 10.0 | 0.00 | 0.00 | 0.00 | 51 | 1005.9 |
| 20260504210340 | 78 | 157 | 5.0 | 11.0 | 0.00 | 0.00 | 0.00 | 53 | 1005.7 |
| 20260504205837 | 78 | 187 | 5.0 | 13.0 | 0.00 | 0.00 | 0.00 | 51 | 1005.9 |
| 20260504205334 | 80 | 191 | 6.0 | 10.0 | 0.00 | 0.00 | 0.00 | 51 | 1006.1 |
| 20260504204832 | 79 | 22 | 4.0 | 10.0 | 0.00 | 0.00 | 0.00 | 53 | 1005.8 |
| 20260504204331 | 79 | 188 | 5.0 | 10.0 | 0.00 | 0.00 | 0.00 | 52 | 1006.1 |
| 20260504203830 | 80 | 302 | 5.0 | 15.0 | 0.00 | 0.00 | 0.00 | 50 | 1006.1 |
| 20260504203326 | 80 | 184 | 2.0 | 13.0 | 0.00 | 0.00 | 0.00 | 52 | 1006.3 |
| 20260504202822 | 80 | 197 | 5.0 | 6.0 | 0.00 | 0.00 | 0.00 | 54 | 1006.3 |
| 20260504202320 | 80 | 161 | 6.0 | 14.0 | 0.00 | 0.00 | 0.00 | 51 | 1006.7 |
| 20260504201816 | 80 | 183 | 3.0 | 13.0 | 0.00 | 0.00 | 0.00 | 52 | 1006.6 |
| 20260504201313 | 80 | 203 | 9.0 | 14.0 | 0.00 | 0.00 | 0.00 | 51 | 1006.6 |
| 20260504200811 | 80 | 188 | 9.0 | 14.0 | 0.00 | 0.00 | 0.00 | 51 | 1006.6 |
| 20260504200307 | 79 | 181 | 6.0 | 11.0 | 0.00 | 0.00 | 0.00 | 50 | 1006.9 |
| 20260504195803 | 79 | 210 | 5.0 | 14.0 | 0.00 | 0.00 | 0.00 | 51 | 1006.9 |
| 20260504195259 | 79 | 177 | 6.0 | 9.0 | 0.00 | 0.00 | 0.00 | 51 | 1007.0 |
| 20260504194756 | 79 | 189 | 9.0 | 14.0 | 0.00 | 0.00 | 0.00 | 51 | 1007.0 |
| 20260504194252 | 79 | 189 | 2.0 | 7.0 | 0.00 | 0.00 | 0.00 | 52 | 1006.8 |
| 20260504193748 | 78 | 91 | 3.0 | 11.0 | 0.00 | 0.00 | 0.00 | 51 | 1007.0 |
| 20260504193246 | 79 | 225 | 7.0 | 9.0 | 0.00 | 0.00 | 0.00 | 52 | 1006.9 |
| 20260504192744 | 80 | 210 | 4.0 | 10.0 | 0.00 | 0.00 | 0.00 | 54 | 1006.9 |
| 20260504192242 | 78 | 181 | 8.0 | 13.0 | 0.00 | 0.00 | 0.00 | 52 | 1006.7 |
| 20260504191741 | 79 | 212 | 11.0 | 14.0 | 0.00 | 0.00 | 0.00 | 52 | 1007.0 |
| 20260504191237 | 78 | 190 | 5.0 | 9.0 | 0.00 | 0.00 | 0.00 | 54 | 1006.9 |
| 20260504190732 | 78 | 189 | 4.0 | 9.0 | 0.00 | 0.00 | 0.00 | 54 | 1007.0 |
| 20260504190229 | 78 | 214 | 5.0 | 15.0 | 0.00 | 0.00 | 0.00 | 54 | 1007.0 |
| 20260504185726 | 78 | 229 | 6.0 | 14.0 | 0.00 | 0.00 | 0.00 | 53 | 1007.1 |
| 20260504185223 | 78 | 172 | 9.0 | 14.0 | 0.00 | 0.00 | 0.00 | 53 | 1007.1 |
| 20260504184719 | 78 | 193 | 5.0 | 13.0 | 0.00 | 0.00 | 0.00 | 54 | 1007.3 |
| 20260504184215 | 78 | 203 | 6.0 | 11.0 | 0.00 | 0.00 | 0.00 | 56 | 1007.1 |
| 20260504183711 | 78 | 150 | 6.0 | 14.0 | 0.00 | 0.00 | 0.00 | 55 | 1007.0 |
| 20260504183209 | 78 | 167 | 7.0 | 13.0 | 0.00 | 0.00 | 0.00 | 53 | 1007.2 |
| 20260504182707 | 78 | 209 | 7.0 | 16.0 | 0.00 | 0.00 | 0.00 | 54 | 1007.2 |
| 20260504182203 | 79 | 155 | 3.0 | 7.0 | 0.00 | 0.00 | 0.00 | 54 | 1007.2 |
| 20260504181700 | 78 | 307 | 7.0 | 11.0 | 0.00 | 0.00 | 0.00 | 52 | 1007.1 |
| 20260504181158 | 77 | 159 | 3.0 | 7.0 | 0.00 | 0.00 | 0.00 | 54 | 1007.1 |
| 20260504180657 | 77 | 175 | 14.0 | 17.0 | 0.00 | 0.00 | 0.00 | 52 | 1007.3 |
| 20260504180155 | 78 | 177 | 8.0 | 11.0 | 0.00 | 0.00 | 0.00 | 53 | 1007.2 |
| 20260504175652 | 77 | 150 | 9.0 | 14.0 | 0.00 | 0.00 | 0.00 | 53 | 1007.2 |
| 20260504175148 | 77 | 154 | 6.0 | 14.0 | 0.00 | 0.00 | 0.00 | 55 | 1007.2 |
| 20260504174647 | 77 | 173 | 10.0 | 15.0 | 0.00 | 0.00 | 0.00 | 53 | 1007.4 |
| 20260504174143 | 77 | 207 | 8.0 | 14.0 | 0.00 | 0.00 | 0.00 | 53 | 1007.5 |
| 20260504173640 | 77 | 74 | 3.0 | 18.0 | 0.00 | 0.00 | 0.00 | 53 | 1007.6 |
| 20260504173138 | 77 | 171 | 4.0 | 10.0 | 0.00 | 0.00 | 0.00 | 53 | 1007.3 |
| 20260504172634 | 77 | 191 | 6.0 | 11.0 | 0.00 | 0.00 | 0.00 | 54 | 1007.5 |
| 20260504172131 | 75 | 169 | 8.0 | 13.0 | 0.00 | 0.00 | 0.00 | 54 | 1007.5 |
| 20260504171627 | 76 | 125 | 7.0 | 16.0 | 0.00 | 0.00 | 0.00 | 54 | 1007.8 |
| 20260504171124 | 76 | 199 | 5.0 | 8.0 | 0.00 | 0.00 | 0.00 | 56 | 1007.8 |
| 20260504170620 | 76 | 132 | 5.0 | 15.0 | 0.00 | 0.00 | 0.00 | 55 | 1007.8 |
| 20260504170118 | 76 | 200 | 12.0 | 17.0 | 0.00 | 0.00 | 0.00 | 53 | 1007.8 |
| 20260504151004 | 72 | 186 | 2.0 | 11.0 | 0.00 | 0.00 | 0.00 | 55 | 1008.5 |
| 20260504150501 | 72 | 197 | 10.0 | 11.0 | 0.00 | 0.00 | 0.00 | 54 | 1008.7 |
| 20260504140927 | 69 | 172 | 4.0 | 11.0 | 0.00 | 0.00 | 0.00 | 59 | 1008.9 |
| 20260504140423 | 69 | 208 | 9.0 | 14.0 | 0.00 | 0.00 | 0.00 | 58 | 1009.2 |
| 20260504130348 | 65 | 218 | 7.0 | 11.0 | 0.00 | 0.00 | 0.00 | 61 | 1009.5 |
| 20260504120311 | 62 | 184 | 5.0 | 10.0 | 0.00 | 0.00 | 0.00 | 65 | 1009.6 |
| 20260504110235 | 62 | 193 | 1.0 | 9.0 | 0.00 | 0.00 | 0.00 | 63 | 1009.8 |
| 20260504100154 | 63 | 179 | 6.0 | 10.0 | 0.00 | 0.00 | 0.00 | 61 | 1009.9 |
| 20260504090116 | 64 | 140 | 1.0 | 8.0 | 0.00 | 0.00 | 0.00 | 59 | 1010.1 |
| 20260504081547 | 65 | 178 | 1.0 | 7.0 | 0.00 | 0.00 | 0.00 | 59 | 1010.1 |
| 20260504081043 | 64 | 162 | 5.0 | 7.0 | 0.00 | 0.00 | 0.00 | 59 | 1010.3 |
| 20260504080540 | 65 | 196 | 2.0 | 7.0 | 0.00 | 0.00 | 0.00 | 59 | 1010.2 |
| 20260504050346 | 64 | 173 | 1.0 | 7.0 | 0.00 | 0.00 | 0.00 | 65 | 1011.4 |
| 20260504045844 | 64 | 212 | 5.0 | 7.0 | 0.00 | 0.00 | 0.00 | 64 | 1011.4 |
| 20260504045343 | 63 | 196 | 4.0 | 7.0 | 0.00 | 0.00 | 0.00 | 65 | 1011.5 |
| 20260504044841 | 63 | 200 | 3.0 | 6.0 | 0.00 | 0.00 | 0.00 | 66 | 1011.7 |
| 20260504044338 | 62 | 186 | 1.0 | 3.0 | 0.00 | 0.00 | 0.00 | 67 | 1011.4 |
| 20260504043836 | 62 | 194 | 1.0 | 5.0 | 0.00 | 0.00 | 0.00 | 67 | 1011.7 |
| 20260504043332 | 62 | 181 | 1.0 | 2.0 | 0.00 | 0.00 | 0.00 | 68 | 1011.7 |
| 20260504042830 | 61 | 183 | 1.0 | 2.0 | 0.00 | 0.00 | 0.00 | 69 | 1011.5 |
| 20260504042326 | 61 | 174 | 1.0 | 2.0 | 0.00 | 0.00 | 0.00 | 69 | 1011.9 |
| 20260504041822 | 61 | 176 | 0.0 | 0.0 | 0.00 | 0.00 | 0.00 | 70 | 1012.0 |
| 20260504041318 | 62 | 170 | 0.0 | 1.0 | 0.00 | 0.00 | 0.00 | 69 | 1012.1 |
| 20260504040815 | 62 | 184 | 0.0 | 1.0 | 0.00 | 0.00 | 0.00 | 69 | 1012.1 |
| 20260504040312 | 62 | 171 | 0.0 | 1.0 | 0.00 | 0.00 | 0.00 | 69 | 1012.1 |
| 20260504035808 | 61 | 174 | 0.0 | 2.0 | 0.00 | 0.00 | 0.00 | 70 | 1012.0 |
| 20260504035305 | 60 | 175 | 0.0 | 0.0 | 0.00 | 0.00 | 0.00 | 72 | 1012.2 |
| 20260504034802 | 60 | 175 | 0.0 | 0.0 | 0.00 | 0.00 | 0.00 | 72 | 1012.2 |
| 20260504034300 | 61 | 175 | 0.0 | 0.0 | 0.00 | 0.00 | 0.00 | 72 | 1012.0 |
| 20260504033757 | 62 | 175 | 0.0 | 0.0 | 0.00 | 0.00 | 0.00 | 69 | 1012.2 |
| 20260504033255 | 62 | 174 | 0.0 | 0.0 | 0.00 | 0.00 | 0.00 | 68 | 1012.3 |
| 20260504032751 | 63 | 174 | 0.0 | 0.0 | 0.00 | 0.00 | 0.00 | 66 | 1012.4 |
| 20260504032248 | 64 | 174 | 0.0 | 0.0 | 0.00 | 0.00 | 0.00 | 64 | 1012.2 |
| 20260504031745 | 64 | 179 | 0.0 | 0.0 | 0.00 | 0.00 | 0.00 | 64 | 1012.5 |
| 20260504031243 | 64 | 197 | 2.0 | 2.0 | 0.00 | 0.00 | 0.00 | 64 | 1012.3 |
| 20260504030738 | 64 | 160 | 0.0 | 1.0 | 0.00 | 0.00 | 0.00 | 63 | 1012.1 |
| 20260504030236 | 64 | 178 | 0.0 | 0.0 | 0.00 | 0.00 | 0.00 | 64 | 1012.2 |
| 20260504025732 | 64 | 181 | 0.0 | 1.0 | 0.00 | 0.00 | 0.00 | 64 | 1012.4 |
| 20260504025229 | 64 | 177 | 0.0 | 1.0 | 0.00 | 0.00 | 0.00 | 64 | 1012.5 |
| 20260504024726 | 64 | 179 | 0.0 | 0.0 | 0.00 | 0.00 | 0.00 | 64 | 1012.2 |
| 20260504024222 | 64 | 182 | 0.0 | 1.0 | 0.00 | 0.00 | 0.00 | 63 | 1012.1 |
| 20260504023719 | 65 | 181 | 0.0 | 0.0 | 0.00 | 0.00 | 0.00 | 63 | 1012.2 |
| 20260504023215 | 65 | 172 | 0.0 | 0.0 | 0.00 | 0.00 | 0.00 | 62 | 1012.3 |
| 20260504022712 | 65 | 171 | 0.0 | 0.0 | 0.00 | 0.00 | 0.00 | 62 | 1012.0 |
| 20260504022208 | 65 | 172 | 0.0 | 0.0 | 0.00 | 0.00 | 0.00 | 63 | 1012.0 |
| 20260504021706 | 65 | 181 | 0.0 | 1.0 | 0.00 | 0.00 | 0.00 | 62 | 1012.2 |
| 20260504021202 | 65 | 184 | 0.0 | 1.0 | 0.00 | 0.00 | 0.00 | 62 | 1012.0 |
| 20260504020659 | 65 | 172 | 0.0 | 1.0 | 0.00 | 0.00 | 0.00 | 63 | 1012.2 |
| 20260504020155 | 65 | 179 | 0.0 | 1.0 | 0.00 | 0.00 | 0.00 | 63 | 1012.2 |
| 20260504015652 | 65 | 182 | 0.0 | 1.0 | 0.00 | 0.00 | 0.00 | 63 | 1012.0 |
| 20260504015148 | 65 | 182 | 0.0 | 0.0 | 0.00 | 0.00 | 0.00 | 63 | 1012.1 |
| 20260504014644 | 65 | 180 | 0.0 | 0.0 | 0.00 | 0.00 | 0.00 | 63 | 1012.0 |
| 20260504014141 | 65 | 176 | 0.0 | 0.0 | 0.00 | 0.00 | 0.00 | 62 | 1012.2 |
| 20260504013634 | 66 | 176 | 0.0 | 0.0 | 0.00 | 0.00 | 0.00 | 62 | 1012.1 |
| 20260504013131 | 67 | 176 | 0.0 | 0.0 | 0.00 | 0.00 | 0.00 | 59 | 1012.1 |
| 20260504012628 | 67 | 176 | 0.0 | 0.0 | 0.00 | 0.00 | 0.00 | 58 | 1012.1 |
| 20260504012126 | 67 | 180 | 0.0 | 1.0 | 0.00 | 0.00 | 0.00 | 58 | 1012.2 |
| 20260504011622 | 67 | 182 | 0.0 | 0.0 | 0.00 | 0.00 | 0.00 | 57 | 1011.9 |
| 20260504011119 | 68 | 176 | 0.0 | 0.0 | 0.00 | 0.00 | 0.00 | 58 | 1011.9 |
| 20260504010614 | 69 | 176 | 0.0 | 0.0 | 0.00 | 0.00 | 0.00 | 56 | 1011.9 |
| 20260504010111 | 70 | 176 | 0.0 | 0.0 | 0.00 | 0.00 | 0.00 | 54 | 1011.9 |
| 20260504005608 | 70 | 180 | 0.0 | 0.0 | 0.00 | 0.00 | 0.00 | 52 | 1012.2 |
| 20260504005104 | 71 | 198 | 0.0 | 0.0 | 0.00 | 0.00 | 0.00 | 52 | 1011.9 |
| 20260504004603 | 71 | 177 | 1.0 | 1.0 | 0.00 | 0.00 | 0.00 | 51 | 1012.0 |
| 20260504004059 | 71 | 177 | 1.0 | 1.0 | 0.00 | 0.00 | 0.00 | 51 | 1011.9 |
| 20260504003555 | 72 | 182 | 0.0 | 1.0 | 0.00 | 0.00 | 0.00 | 50 | 1011.9 |
| 20260504003052 | 72 | 172 | 1.0 | 2.0 | 0.00 | 0.00 | 0.00 | 49 | 1012.2 |
| 20260504002549 | 73 | 187 | 0.0 | 1.0 | 0.00 | 0.00 | 0.00 | 48 | 1012.2 |
| 20260504002047 | 73 | 184 | 0.0 | 3.0 | 0.00 | 0.00 | 0.00 | 47 | 1012.2 |
| 20260504001545 | 73 | 159 | 1.0 | 2.0 | 0.00 | 0.00 | 0.00 | 47 | 1012.0 |
| 20260504001040 | 74 | 162 | 1.0 | 2.0 | 0.00 | 0.00 | 0.00 | 47 | 1012.1 |
| 20260504000537 | 74 | 170 | 0.0 | 5.0 | 0.00 | 0.00 | 0.00 | 45 | 1012.2 |
| 20260504000035 | 75 | 172 | 2.0 | 5.0 | 0.00 | 0.00 | 0.00 | 45 | 1012.2 |
| 20260503235533 | 75 | 178 | 1.0 | 2.0 | 0.00 | 0.00 | 0.00 | 43 | 1012.1 |
| 20260503235030 | 75 | 169 | 2.0 | 5.0 | 0.00 | 0.00 | 0.00 | 43 | 1012.2 |